Time,TemperatureF,DewpointF,PressureIn,WindDirection,WindDirectionDegrees,WindSpeedMPH,WindSpeedGustMPH,Humidity,HourlyPrecipIn,Conditions,Clouds,dailyrainin,SoftwareType,DateUTC
2013-01-13 00:00:00,73.9,64.7,30.05,SE,135,0.0,0.0,73,0.00,CLR,,0.00,WeatherDisplay:10.37,2013-01-13 05:00:00,
2013-01-13 00:03:00,73.9,64.7,30.05,SE,135,0.0,0.0,73,0.00,CLR,,0.00,WeatherDisplay:10.37,2013-01-13 05:03:00,
2013-01-13 00:08:00,73.9,64.3,30.05,SE,135,0.0,0.0,72,0.00,CLR,,0.00,WeatherDisplay:10.37,2013-01-13 05:08:00,
2013-01-13 00:13:00,74.1,64.5,30.05,SE,135,0.0,0.0,72,0.00,CLR,,0.00,WeatherDisplay:10.37,2013-01-13 05:13:00,
2013-01-13 00:18:00,73.9,64.3,30.05,SE,135,0.0,0.0,72,0.00,CLR,,0.00,WeatherDisplay:10.37,2013-01-13 05:18:00,
2013-01-13 00:23:00,73.8,64.2,30.05,SE,135,0.0,0.0,72,0.00,CLR,,0.00,WeatherDisplay:10.37,2013-01-13 05:23:00,
2013-01-13 00:28:00,73.8,64.2,30.04,SE,135,0.0,0.0,72,0.00,CLR,,0.00,WeatherDisplay:10.37,2013-01-13 05:28:00,
2013-01-13 00:33:00,73.9,64.3,30.04,SE,135,0.0,0.0,72,0.00,CLR,,0.00,WeatherDisplay:10.37,2013-01-13 05:33:00,
2013-01-13 00:38:00,73.9,64.3,30.04,SE,135,0.0,0.0,72,0.00,CLR,,0.00,WeatherDisplay:10.37,2013-01-13 05:38:00,
2013-01-13 00:43:00,73.8,64.6,30.04,SE,135,0.0,0.0,73,0.00,CLR,,0.00,WeatherDisplay:10.37,2013-01-13 05:43:00,
2013-01-13 00:48:00,73.8,64.6,30.04,SE,135,0.0,0.0,73,0.00,CLR,,0.00,WeatherDisplay:10.37,2013-01-13 05:48:00,
2013-01-13 00:53:00,73.8,64.6,30.04,SE,135,0.0,0.0,73,0.00,CLR,,0.00,WeatherDisplay:10.37,2013-01-13 05:53:00,
2013-01-13 00:58:00,73.9,65.1,30.04,SE,135,0.0,0.0,74,0.00,CLR,,0.00,WeatherDisplay:10.37,2013-01-13 05:58:00,
2013-01-13 01:03:00,73.8,65.0,30.04,SE,135,0.0,0.0,74,0.00,CLR,,0.00,WeatherDisplay:10.37,2013-01-13 06:03:00,
2013-01-13 01:08:00,73.8,65.0,30.04,SE,135,0.0,0.0,74,0.00,CLR,,0.00,WeatherDisplay:10.37,2013-01-13 06:08:00,
2013-01-13 01:13:00,73.9,65.5,30.04,SE,135,0.0,0.0,75,0.00,CLR,,0.00,WeatherDisplay:10.37,2013-01-13 06:13:00,
2013-01-13 01:18:00,73.8,65.3,30.04,SE,135,0.0,0.0,75,0.00,CLR,,0.00,WeatherDisplay:10.37,2013-01-13 06:18:00,
2013-01-13 01:23:00,73.8,65.3,30.04,SE,135,0.0,0.0,75,0.00,CLR,,0.00,WeatherDisplay:10.37,2013-01-13 06:23:00,
2013-01-13 01:28:00,73.8,65.3,30.04,SE,135,0.0,0.0,75,0.00,CLR,,0.00,WeatherDisplay:10.37,2013-01-13 06:28:00,
2013-01-13 01:33:00,73.8,65.3,30.04,SE,135,0.0,0.0,75,0.00,CLR,,0.00,WeatherDisplay:10.37,2013-01-13 06:33:00,
2013-01-13 01:38:00,73.8,65.3,30.04,SE,135,0.0,0.0,75,0.00,CLR,,0.00,WeatherDisplay:10.37,2013-01-13 06:38:00,
2013-01-13 01:43:00,73.9,65.5,30.04,SE,135,0.0,0.0,75,0.00,CLR,,0.00,WeatherDisplay:10.37,2013-01-13 06:43:00,
2013-01-13 01:48:00,73.9,65.5,30.04,SE,135,0.0,0.0,75,0.00,CLR,,0.00,WeatherDisplay:10.37,2013-01-13 06:48:00,
2013-01-13 01:53:00,73.8,65.3,30.04,SE,135,0.0,0.0,75,0.00,CLR,,0.00,WeatherDisplay:10.37,2013-01-13 06:53:00,
2013-01-13 01:58:00,73.9,65.5,30.04,SE,135,0.0,0.0,75,0.00,CLR,,0.00,WeatherDisplay:10.37,2013-01-13 06:58:00,
2013-01-13 02:03:00,73.9,65.5,30.04,SE,135,0.0,0.0,75,0.00,CLR,,0.00,WeatherDisplay:10.37,2013-01-13 07:03:00,
2013-01-13 02:08:00,73.9,65.5,30.04,SE,135,0.0,0.0,75,0.00,CLR,,0.00,WeatherDisplay:10.37,2013-01-13 07:08:00,
2013-01-13 02:13:00,73.9,65.1,30.04,SE,135,0.0,0.0,74,0.00,CLR,,0.00,WeatherDisplay:10.37,2013-01-13 07:13:00,
2013-01-13 02:18:00,74.3,65.5,30.04,SE,135,0.0,0.0,74,0.00,CLR,,0.00,WeatherDisplay:10.37,2013-01-13 07:18:00,
2013-01-13 02:23:00,74.1,65.7,30.04,SE,135,0.0,0.0,75,0.00,CLR,,0.00,WeatherDisplay:10.37,2013-01-13 07:23:00,
2013-01-13 02:28:00,74.3,65.9,30.03,SE,135,0.0,0.0,75,0.00,CLR,,0.00,WeatherDisplay:10.37,2013-01-13 07:28:00,
2013-01-13 02:33:00,74.3,65.5,30.03,SE,135,0.0,0.0,74,0.00,CLR,,0.00,WeatherDisplay:10.37,2013-01-13 07:33:00,
2013-01-13 02:38:00,74.3,65.5,30.03,SE,135,0.0,0.0,74,0.00,CLR,,0.00,WeatherDisplay:10.37,2013-01-13 07:38:00,
2013-01-13 02:43:00,74.5,65.3,30.03,SE,135,0.0,0.0,73,0.00,CLR,,0.00,WeatherDisplay:10.37,2013-01-13 07:43:00,
2013-01-13 02:48:00,74.5,65.3,30.04,SE,135,0.0,0.0,73,0.00,CLR,,0.00,WeatherDisplay:10.37,2013-01-13 07:48:00,
2013-01-13 02:53:00,74.7,65.0,30.04,SE,135,0.0,0.0,72,0.00,CLR,,0.00,WeatherDisplay:10.37,2013-01-13 07:53:00,
2013-01-13 02:58:00,74.5,64.9,30.04,SE,135,0.0,0.0,72,0.00,CLR,,0.00,WeatherDisplay:10.37,2013-01-13 07:58:00,
2013-01-13 03:03:00,74.3,64.7,30.04,SE,135,0.0,0.0,72,0.00,CLR,,0.00,WeatherDisplay:10.37,2013-01-13 08:03:00,
2013-01-13 03:08:00,74.3,64.7,30.03,SE,135,0.0,0.0,72,0.00,CLR,,0.00,WeatherDisplay:10.37,2013-01-13 08:08:00,
2013-01-13 03:13:00,74.5,64.9,30.03,SE,135,0.0,0.0,72,0.00,CLR,,0.00,WeatherDisplay:10.37,2013-01-13 08:13:00,
2013-01-13 03:18:00,74.3,64.7,30.03,SE,135,0.0,0.0,72,0.00,CLR,,0.00,WeatherDisplay:10.37,2013-01-13 08:18:00,
2013-01-13 03:23:00,74.3,64.7,30.03,SE,135,0.0,0.0,72,0.00,CLR,,0.00,WeatherDisplay:10.37,2013-01-13 08:23:00,
2013-01-13 03:28:00,74.1,64.1,30.02,SE,135,0.0,0.0,71,0.00,CLR,,0.00,WeatherDisplay:10.37,2013-01-13 08:28:00,
2013-01-13 03:33:00,73.9,63.9,30.02,SE,135,0.0,0.0,71,0.00,CLR,,0.00,WeatherDisplay:10.37,2013-01-13 08:33:00,
2013-01-13 03:38:00,73.8,64.2,30.02,SE,135,0.0,0.0,72,0.00,CLR,,0.00,WeatherDisplay:10.37,2013-01-13 08:38:00,
2013-01-13 03:43:00,73.8,64.2,30.02,SE,135,8.1,8.1,72,0.00,CLR,,0.00,WeatherDisplay:10.37,2013-01-13 08:43:00,
2013-01-13 03:48:00,73.9,64.3,30.02,SE,135,8.1,8.1,72,0.00,CLR,,0.00,WeatherDisplay:10.37,2013-01-13 08:48:00,
2013-01-13 03:53:00,73.9,63.9,30.02,SE,135,6.9,6.9,71,0.00,CLR,,0.00,WeatherDisplay:10.37,2013-01-13 08:53:00,
2013-01-13 03:58:00,73.9,63.9,30.02,SE,135,6.9,6.9,71,0.00,CLR,,0.00,WeatherDisplay:10.37,2013-01-13 08:58:00,
2013-01-13 04:03:00,73.8,63.8,30.02,ESE,112,8.1,8.1,71,0.00,CLR,,0.00,WeatherDisplay:10.37,2013-01-13 09:03:00,
2013-01-13 04:08:00,73.8,63.8,30.01,ESE,112,8.1,8.1,71,0.00,CLR,,0.00,WeatherDisplay:10.37,2013-01-13 09:08:00,
2013-01-13 04:13:00,73.8,63.8,30.01,ESE,112,8.1,8.1,71,0.00,CLR,,0.00,WeatherDisplay:10.37,2013-01-13 09:13:00,
2013-01-13 04:18:00,73.8,63.4,30.01,ESE,112,0.0,0.0,70,0.00,CLR,,0.00,WeatherDisplay:10.37,2013-01-13 09:18:00,
2013-01-13 04:23:00,73.6,63.2,30.01,ESE,112,0.0,0.0,70,0.00,CLR,,0.00,WeatherDisplay:10.37,2013-01-13 09:23:00,
2013-01-13 04:28:00,73.6,63.6,30.02,ESE,112,0.0,0.0,71,0.00,CLR,,0.00,WeatherDisplay:10.37,2013-01-13 09:28:00,
2013-01-13 04:33:00,73.4,63.4,30.02,ESE,112,0.0,0.0,71,0.00,CLR,,0.00,WeatherDisplay:10.37,2013-01-13 09:33:00,
2013-01-13 04:38:00,73.4,63.4,30.02,ESE,112,0.0,0.0,71,0.00,CLR,,0.00,WeatherDisplay:10.37,2013-01-13 09:38:00,
2013-01-13 04:43:00,73.6,63.6,30.02,ESE,112,0.0,0.0,71,0.00,CLR,,0.00,WeatherDisplay:10.37,2013-01-13 09:43:00,
2013-01-13 04:48:00,73.6,63.6,30.02,ESE,112,0.0,0.0,71,0.00,CLR,,0.00,WeatherDisplay:10.37,2013-01-13 09:48:00,
2013-01-13 04:53:00,73.4,63.4,30.02,ESE,112,0.0,0.0,71,0.00,CLR,,0.00,WeatherDisplay:10.37,2013-01-13 09:53:00,
2013-01-13 04:58:00,73.6,63.2,30.02,ESE,112,0.0,0.0,70,0.00,CLR,,0.00,WeatherDisplay:10.37,2013-01-13 09:58:00,
2013-01-13 05:03:00,73.6,63.2,30.02,ESE,112,0.0,0.0,70,0.00,CLR,,0.00,WeatherDisplay:10.37,2013-01-13 10:03:00,
2013-01-13 05:08:00,73.6,63.6,30.02,ESE,112,0.0,0.0,71,0.00,CLR,,0.00,WeatherDisplay:10.37,2013-01-13 10:08:00,
2013-01-13 05:13:00,73.8,63.4,30.02,ESE,112,0.0,0.0,70,0.00,CLR,,0.00,WeatherDisplay:10.37,2013-01-13 10:13:00,
2013-01-13 05:18:00,73.4,63.4,30.02,ESE,112,0.0,0.0,71,0.00,CLR,,0.00,WeatherDisplay:10.37,2013-01-13 10:18:00,
2013-01-13 05:23:00,73.6,63.6,30.02,ESE,112,0.0,0.0,71,0.00,CLR,,0.00,WeatherDisplay:10.37,2013-01-13 10:23:00,
2013-01-13 05:28:00,73.2,62.8,30.03,ESE,112,0.0,0.0,70,0.00,CLR,,0.00,WeatherDisplay:10.37,2013-01-13 10:28:00,
2013-01-13 05:33:00,73.2,62.8,30.03,ESE,112,0.0,0.0,70,0.00,CLR,,0.00,WeatherDisplay:10.37,2013-01-13 10:33:00,
2013-01-13 05:38:00,73.2,62.8,30.03,ESE,112,0.0,0.0,70,0.00,CLR,,0.00,WeatherDisplay:10.37,2013-01-13 10:38:00,
2013-01-13 05:43:00,73.2,62.8,30.03,ESE,112,0.0,0.0,70,0.00,CLR,,0.00,WeatherDisplay:10.37,2013-01-13 10:43:00,
2013-01-13 05:48:00,73.0,62.7,30.02,ESE,112,0.0,0.0,70,0.00,CLR,,0.00,WeatherDisplay:10.37,2013-01-13 10:48:00,
2013-01-13 05:54:00,73.0,62.7,30.02,ESE,112,0.0,0.0,70,0.00,CLR,,0.00,WeatherDisplay:10.37,2013-01-13 10:54:00,
2013-01-13 05:59:00,73.0,62.7,30.02,ESE,112,0.0,0.0,70,0.00,CLR,,0.00,WeatherDisplay:10.37,2013-01-13 10:59:00,
2013-01-13 06:04:00,73.2,62.8,30.02,ESE,112,0.0,0.0,70,0.00,CLR,,0.00,WeatherDisplay:10.37,2013-01-13 11:04:00,
2013-01-13 06:09:00,73.2,62.8,30.03,ESE,112,0.0,0.0,70,0.00,CLR,,0.00,WeatherDisplay:10.37,2013-01-13 11:09:00,
2013-01-13 06:14:00,73.2,62.8,30.03,ESE,112,0.0,0.0,70,0.00,CLR,,0.00,WeatherDisplay:10.37,2013-01-13 11:14:00,
2013-01-13 06:19:00,73.2,62.8,30.03,ESE,112,0.0,0.0,70,0.00,CLR,,0.00,WeatherDisplay:10.37,2013-01-13 11:19:00,
2013-01-13 06:24:00,73.2,62.8,30.03,ESE,112,0.0,0.0,70,0.00,CLR,,0.00,WeatherDisplay:10.37,2013-01-13 11:24:00,
2013-01-13 06:29:00,73.2,62.8,30.02,ESE,112,0.0,0.0,70,0.00,CLR,,0.00,WeatherDisplay:10.37,2013-01-13 11:29:00,
2013-01-13 06:34:00,73.0,63.1,30.02,ESE,112,0.0,0.0,71,0.00,CLR,,0.00,WeatherDisplay:10.37,2013-01-13 11:34:00,
2013-01-13 06:39:00,73.2,63.2,30.02,ESE,112,0.0,0.0,71,0.00,CLR,,0.00,WeatherDisplay:10.37,2013-01-13 11:39:00,
2013-01-13 06:44:00,73.2,63.2,30.02,ESE,112,0.0,0.0,71,0.00,CLR,,0.00,WeatherDisplay:10.37,2013-01-13 11:44:00,
2013-01-13 06:49:00,73.0,63.1,30.02,ESE,112,0.0,0.0,71,0.00,CLR,,0.00,WeatherDisplay:10.37,2013-01-13 11:49:00,
2013-01-13 06:54:00,73.0,63.1,30.02,ESE,112,0.0,0.0,71,0.00,CLR,,0.00,WeatherDisplay:10.37,2013-01-13 11:54:00,
2013-01-13 06:59:00,73.2,63.6,30.02,ESE,112,0.0,0.0,72,0.00,CLR,,0.00,WeatherDisplay:10.37,2013-01-13 11:59:00,
2013-01-13 07:04:00,73.0,63.5,30.02,ESE,112,0.0,0.0,72,0.00,CLR,,0.00,WeatherDisplay:10.37,2013-01-13 12:04:00,
2013-01-13 07:09:00,73.2,63.6,30.03,ESE,112,0.0,0.0,72,0.00,CLR,,0.00,WeatherDisplay:10.37,2013-01-13 12:09:00,
2013-01-13 07:14:00,72.9,63.3,30.03,ESE,112,0.0,0.0,72,0.00,CLR,,0.00,WeatherDisplay:10.37,2013-01-13 12:14:00,
2013-01-13 07:19:00,73.0,63.9,30.03,ESE,112,0.0,0.0,73,0.00,CLR,,0.00,WeatherDisplay:10.37,2013-01-13 12:19:00,
2013-01-13 07:24:00,73.0,63.5,30.03,ESE,112,0.0,0.0,72,0.00,CLR,,0.00,WeatherDisplay:10.37,2013-01-13 12:24:00,
2013-01-13 07:29:00,73.2,63.6,30.03,ESE,112,0.0,0.0,72,0.00,CLR,,0.00,WeatherDisplay:10.37,2013-01-13 12:29:00,
2013-01-13 07:34:00,73.2,63.6,30.03,ESE,112,0.0,0.0,72,0.00,CLR,,0.00,WeatherDisplay:10.37,2013-01-13 12:34:00,
2013-01-13 07:39:00,73.4,63.8,30.03,ESE,112,0.0,0.0,72,0.00,CLR,,0.00,WeatherDisplay:10.37,2013-01-13 12:39:00,
2013-01-13 07:44:00,73.8,64.2,30.03,ESE,112,0.0,0.0,72,0.00,CLR,,0.00,WeatherDisplay:10.37,2013-01-13 12:44:00,
2013-01-13 07:49:00,73.6,64.0,30.03,ESE,112,0.0,0.0,72,0.00,CLR,,0.00,WeatherDisplay:10.37,2013-01-13 12:49:00,
2013-01-13 07:54:00,73.6,64.0,30.03,ESE,112,0.0,0.0,72,0.00,CLR,,0.00,WeatherDisplay:10.37,2013-01-13 12:54:00,
2013-01-13 07:59:00,73.9,64.3,30.03,ESE,112,0.0,0.0,72,0.00,CLR,,0.00,WeatherDisplay:10.37,2013-01-13 12:59:00,
2013-01-13 08:04:00,73.9,64.3,30.03,ESE,112,0.0,0.0,72,0.00,CLR,,0.00,WeatherDisplay:10.37,2013-01-13 13:04:00,
2013-01-13 08:09:00,74.3,64.7,30.03,ESE,112,0.0,0.0,72,0.00,CLR,,0.00,WeatherDisplay:10.37,2013-01-13 13:09:00,
2013-01-13 08:14:00,74.5,64.9,30.03,ESE,112,0.0,0.0,72,0.00,CLR,,0.00,WeatherDisplay:10.37,2013-01-13 13:14:00,
2013-01-13 08:19:00,74.7,65.0,30.03,ESE,112,0.0,0.0,72,0.00,CLR,,0.00,WeatherDisplay:10.37,2013-01-13 13:19:00,
2013-01-13 08:24:00,75.0,65.4,30.03,ESE,112,0.0,0.0,72,0.00,CLR,,0.00,WeatherDisplay:10.37,2013-01-13 13:24:00,
2013-01-13 08:29:00,75.2,65.6,30.03,ESE,112,0.0,0.0,72,0.00,CLR,,0.00,WeatherDisplay:10.37,2013-01-13 13:29:00,
2013-01-13 08:34:00,75.2,65.6,30.03,ESE,112,0.0,0.0,72,0.00,CLR,,0.00,WeatherDisplay:10.37,2013-01-13 13:34:00,
2013-01-13 08:39:00,75.0,65.0,30.03,ESE,112,0.0,0.0,71,0.00,CLR,,0.00,WeatherDisplay:10.37,2013-01-13 13:39:00,
2013-01-13 08:44:00,75.6,65.9,30.03,ESE,112,0.0,0.0,72,0.00,CLR,,0.00,WeatherDisplay:10.37,2013-01-13 13:44:00,
2013-01-13 08:49:00,75.6,65.5,30.03,ESE,112,0.0,0.0,71,0.00,CLR,,0.00,WeatherDisplay:10.37,2013-01-13 13:49:00,
2013-01-13 08:54:00,75.7,65.7,30.03,ESE,112,0.0,0.0,71,0.00,CLR,,0.00,WeatherDisplay:10.37,2013-01-13 13:54:00,
2013-01-13 08:59:00,75.7,65.7,30.03,ESE,112,0.0,0.0,71,0.00,CLR,,0.00,WeatherDisplay:10.37,2013-01-13 13:59:00,
2013-01-13 09:04:00,76.1,66.0,30.03,ESE,112,0.0,0.0,71,0.00,CLR,,0.00,WeatherDisplay:10.37,2013-01-13 14:04:00,
2013-01-13 09:09:00,76.3,65.8,30.03,ESE,112,0.0,0.0,70,0.00,CLR,,0.00,WeatherDisplay:10.37,2013-01-13 14:09:00,
2013-01-13 09:14:00,76.3,65.8,30.03,ESE,112,0.0,0.0,70,0.00,CLR,,0.00,WeatherDisplay:10.37,2013-01-13 14:14:00,
2013-01-13 09:19:00,76.3,65.8,30.03,ESE,112,0.0,0.0,70,0.00,CLR,,0.00,WeatherDisplay:10.37,2013-01-13 14:19:00,
2013-01-13 09:24:00,76.8,65.9,30.03,ESE,112,0.0,0.0,69,0.00,CLR,,0.00,WeatherDisplay:10.37,2013-01-13 14:24:00,
2013-01-13 09:29:00,77.0,66.5,30.03,ESE,112,0.0,0.0,70,0.00,CLR,,0.00,WeatherDisplay:10.37,2013-01-13 14:29:00,
2013-01-13 09:34:00,76.8,66.3,30.04,ESE,112,0.0,0.0,70,0.00,CLR,,0.00,WeatherDisplay:10.37,2013-01-13 14:34:00,
2013-01-13 09:39:00,77.4,66.8,30.04,ESE,112,0.0,0.0,70,0.00,CLR,,0.00,WeatherDisplay:10.37,2013-01-13 14:39:00,
2013-01-13 09:44:00,77.2,66.6,30.04,ESE,112,0.0,0.0,70,0.00,CLR,,0.00,WeatherDisplay:10.37,2013-01-13 14:44:00,
2013-01-13 09:49:00,77.9,67.3,30.04,ESE,112,0.0,0.0,70,0.00,CLR,,0.00,WeatherDisplay:10.37,2013-01-13 14:49:00,
2013-01-13 09:54:00,77.5,67.0,30.04,ESE,112,0.0,0.0,70,0.00,CLR,,0.00,WeatherDisplay:10.37,2013-01-13 14:54:00,
2013-01-13 10:21:00,76.8,65.5,30.07,ESE,112,0.0,2.3,68,0.00,CLR,,0.00,WeatherDisplay:10.37,2013-01-13 15:21:00,
2013-01-13 10:26:00,78.1,67.5,30.04,ESE,112,0.0,0.0,70,0.00,CLR,,0.00,WeatherDisplay:10.37,2013-01-13 15:26:00,
2013-01-13 10:32:00,78.3,67.7,30.04,ESE,112,0.0,0.0,70,0.00,CLR,,0.00,WeatherDisplay:10.37,2013-01-13 15:32:00,
2013-01-13 10:37:00,78.3,67.7,30.04,ESE,112,0.0,0.0,70,0.00,CLR,,0.00,WeatherDisplay:10.37,2013-01-13 15:37:00,
2013-01-13 10:42:00,78.3,67.7,30.04,ESE,112,0.0,0.0,70,0.00,CLR,,0.00,WeatherDisplay:10.37,2013-01-13 15:42:00,
2013-01-13 10:47:00,78.6,67.6,30.03,ESE,112,0.0,0.0,69,0.00,CLR,,0.00,WeatherDisplay:10.37,2013-01-13 15:47:00,
2013-01-13 10:52:00,79.2,67.3,30.03,ESE,112,0.0,0.0,67,0.00,CLR,,0.00,WeatherDisplay:10.37,2013-01-13 15:52:00,
2013-01-13 10:57:00,79.3,67.4,30.03,ESE,112,0.0,0.0,67,0.00,CLR,,0.00,WeatherDisplay:10.37,2013-01-13 15:57:00,
2013-01-13 11:02:00,79.9,67.9,30.03,ESE,112,0.0,0.0,67,0.00,CLR,,0.00,WeatherDisplay:10.37,2013-01-13 16:02:00,
2013-01-13 11:07:00,80.4,68.5,30.04,ESE,112,0.0,0.0,67,0.00,CLR,,0.00,WeatherDisplay:10.37,2013-01-13 16:07:00,
2013-01-13 11:12:00,80.8,68.4,30.04,ESE,112,0.0,0.0,66,0.00,CLR,,0.00,WeatherDisplay:10.37,2013-01-13 16:12:00,
2013-01-13 11:17:00,80.8,68.4,30.04,ENE,68,0.0,0.0,66,0.00,CLR,,0.00,WeatherDisplay:10.37,2013-01-13 16:17:00,
2013-01-13 11:22:00,80.8,67.9,30.04,NW,315,0.0,0.0,65,0.00,CLR,,0.00,WeatherDisplay:10.37,2013-01-13 16:22:00,
2013-01-13 11:27:00,81.1,68.3,30.04,South,180,8.1,8.1,65,0.00,CLR,,0.00,WeatherDisplay:10.37,2013-01-13 16:27:00,
2013-01-13 11:32:00,80.8,67.5,30.04,SE,135,6.9,6.9,64,0.00,CLR,,0.00,WeatherDisplay:10.37,2013-01-13 16:32:00,
2013-01-13 11:37:00,80.8,67.0,30.04,SSE,158,6.9,6.9,63,0.00,CLR,,0.00,WeatherDisplay:10.37,2013-01-13 16:37:00,
2013-01-13 11:42:00,81.5,67.7,30.04,SE,135,9.2,9.2,63,0.00,CLR,,0.00,WeatherDisplay:10.37,2013-01-13 16:42:00,
2013-01-13 11:47:00,81.9,68.0,30.05,ESE,112,6.9,6.9,63,0.00,CLR,,0.00,WeatherDisplay:10.37,2013-01-13 16:47:00,
2013-01-13 11:52:00,81.7,67.4,30.05,South,180,8.2,8.2,62,0.00,CLR,,0.00,WeatherDisplay:10.37,2013-01-13 16:52:00,
2013-01-13 11:57:00,81.5,67.2,30.05,South,180,8.2,8.2,62,0.00,CLR,,0.00,WeatherDisplay:10.37,2013-01-13 16:57:00,
2013-01-13 12:02:00,81.0,67.2,30.05,SSE,158,8.1,8.1,63,0.00,CLR,,0.00,WeatherDisplay:10.37,2013-01-13 17:02:00,
2013-01-13 12:07:00,81.0,67.2,30.06,SSE,158,6.9,6.9,63,0.00,CLR,,0.00,WeatherDisplay:10.37,2013-01-13 17:07:00,
2013-01-13 12:12:00,81.1,66.9,30.06,SE,135,6.9,6.9,62,0.00,CLR,,0.00,WeatherDisplay:10.37,2013-01-13 17:12:00,
2013-01-13 12:17:00,81.5,67.2,30.06,SSE,158,9.5,9.5,62,0.00,CLR,,0.00,WeatherDisplay:10.37,2013-01-13 17:17:00,
2013-01-13 12:22:00,81.5,67.7,30.06,SSE,158,8.1,8.1,63,0.00,CLR,,0.00,WeatherDisplay:10.37,2013-01-13 17:22:00,
2013-01-13 12:27:00,81.5,67.7,30.06,SE,135,7.2,7.2,63,0.00,CLR,,0.00,WeatherDisplay:10.37,2013-01-13 17:27:00,
2013-01-13 12:32:00,82.0,67.7,30.06,ESE,112,6.9,6.9,62,0.00,CLR,,0.00,WeatherDisplay:10.37,2013-01-13 17:32:00,
2013-01-13 12:37:00,82.2,68.4,30.06,SE,135,9.2,9.2,63,0.00,CLR,,0.00,WeatherDisplay:10.37,2013-01-13 17:37:00,
2013-01-13 12:42:00,82.6,68.2,30.06,East,90,6.9,6.9,62,0.00,CLR,,0.00,WeatherDisplay:10.37,2013-01-13 17:42:00,
2013-01-13 12:47:00,82.4,68.1,30.06,SSE,158,8.1,8.1,62,0.00,CLR,,0.00,WeatherDisplay:10.37,2013-01-13 17:47:00,
2013-01-13 12:52:00,82.2,68.4,30.06,SE,135,10.2,10.2,63,0.00,CLR,,0.00,WeatherDisplay:10.37,2013-01-13 17:52:00,
2013-01-13 12:57:00,82.2,67.9,30.06,SE,135,10.4,10.4,62,0.00,CLR,,0.00,WeatherDisplay:10.37,2013-01-13 17:57:00,
2013-01-13 13:02:00,82.2,67.9,30.06,SE,135,8.1,8.1,62,0.00,CLR,,0.00,WeatherDisplay:10.37,2013-01-13 18:02:00,
2013-01-13 13:07:00,82.0,68.2,30.05,South,180,4.6,4.6,63,0.00,CLR,,0.00,WeatherDisplay:10.37,2013-01-13 18:07:00,
2013-01-13 13:12:00,82.0,68.2,30.05,SE,135,8.1,8.1,63,0.00,CLR,,0.00,WeatherDisplay:10.37,2013-01-13 18:12:00,
2013-01-13 13:17:00,81.7,67.4,30.05,SSE,158,5.8,5.8,62,0.00,CLR,,0.00,WeatherDisplay:10.37,2013-01-13 18:17:00,
2013-01-13 13:22:00,81.9,67.6,30.05,ESE,112,8.1,8.1,62,0.00,CLR,,0.00,WeatherDisplay:10.37,2013-01-13 18:22:00,
2013-01-13 13:27:00,81.9,67.6,30.05,SSE,158,4.6,4.6,62,0.00,CLR,,0.00,WeatherDisplay:10.37,2013-01-13 18:27:00,
2013-01-13 13:32:00,82.0,67.7,30.05,South,180,6.3,6.3,62,0.00,CLR,,0.00,WeatherDisplay:10.37,2013-01-13 18:32:00,
2013-01-13 13:37:00,81.7,67.9,30.05,SSE,158,3.5,3.5,63,0.00,CLR,,0.00,WeatherDisplay:10.37,2013-01-13 18:37:00,
2013-01-13 13:42:00,81.7,67.4,30.05,South,180,7.2,7.2,62,0.00,CLR,,0.00,WeatherDisplay:10.37,2013-01-13 18:42:00,
2013-01-13 13:47:00,81.9,67.6,30.06,SE,135,6.9,6.9,62,0.00,CLR,,0.00,WeatherDisplay:10.37,2013-01-13 18:47:00,
2013-01-13 13:52:00,81.9,67.6,30.06,East,90,1.4,4.3,62,0.00,CLR,,0.00,WeatherDisplay:10.37,2013-01-13 18:52:00,
2013-01-13 13:57:00,81.5,67.2,30.06,South,180,8.1,8.1,62,0.00,CLR,,0.00,WeatherDisplay:10.37,2013-01-13 18:57:00,
2013-01-13 14:02:00,81.7,67.4,30.06,SSE,158,6.9,6.9,62,0.00,CLR,,0.00,WeatherDisplay:10.37,2013-01-13 19:02:00,
2013-01-13 14:07:00,81.7,67.4,30.05,SE,135,5.1,5.1,62,0.00,CLR,,0.00,WeatherDisplay:10.37,2013-01-13 19:07:00,
2013-01-13 14:12:00,81.7,66.9,30.05,South,180,6.9,6.9,61,0.00,CLR,,0.00,WeatherDisplay:10.37,2013-01-13 19:12:00,
2013-01-13 14:17:00,81.5,67.2,30.05,South,180,6.9,6.9,62,0.00,CLR,,0.00,WeatherDisplay:10.37,2013-01-13 19:17:00,
2013-01-13 14:22:00,81.5,67.2,30.05,South,180,6.9,6.9,62,0.00,CLR,,0.00,WeatherDisplay:10.37,2013-01-13 19:22:00,
2013-01-13 14:27:00,81.9,67.6,30.05,South,180,6.9,6.9,62,0.00,CLR,,0.00,WeatherDisplay:10.37,2013-01-13 19:27:00,
2013-01-13 14:32:00,81.7,66.9,30.05,South,180,0.0,0.0,61,0.00,CLR,,0.00,WeatherDisplay:10.37,2013-01-13 19:32:00,
2013-01-13 14:37:00,81.5,67.2,30.05,South,180,0.0,0.0,62,0.00,CLR,,0.00,WeatherDisplay:10.37,2013-01-13 19:37:00,
2013-01-13 14:42:00,81.5,67.2,30.05,South,180,0.0,0.0,62,0.00,CLR,,0.00,WeatherDisplay:10.37,2013-01-13 19:42:00,
2013-01-13 14:47:00,81.3,67.1,30.05,South,180,0.0,0.0,62,0.00,CLR,,0.00,WeatherDisplay:10.37,2013-01-13 19:47:00,
2013-01-13 14:52:00,81.3,67.1,30.05,SSE,158,0.0,0.0,62,0.00,CLR,,0.00,WeatherDisplay:10.37,2013-01-13 19:52:00,
2013-01-13 14:57:00,81.1,66.9,30.05,SE,135,6.9,6.9,62,0.00,CLR,,0.00,WeatherDisplay:10.37,2013-01-13 19:57:00,
2013-01-13 15:02:00,80.6,66.4,30.05,NE,45,6.9,6.9,62,0.00,CLR,,0.00,WeatherDisplay:10.37,2013-01-13 20:02:00,
2013-01-13 15:07:00,80.8,67.0,30.06,SE,135,8.1,8.1,63,0.00,CLR,,0.00,WeatherDisplay:10.37,2013-01-13 20:07:00,
2013-01-13 15:12:00,80.8,67.0,30.06,SE,135,7.5,7.5,63,0.00,CLR,,0.00,WeatherDisplay:10.37,2013-01-13 20:12:00,
2013-01-13 15:17:00,80.4,66.7,30.06,SSW,202,4.6,4.6,63,0.00,CLR,,0.00,WeatherDisplay:10.37,2013-01-13 20:17:00,
2013-01-13 15:22:00,80.2,66.5,30.06,SE,135,6.9,6.9,63,0.00,CLR,,0.00,WeatherDisplay:10.37,2013-01-13 20:22:00,
2013-01-13 15:27:00,80.4,66.2,30.06,SE,135,6.9,6.9,62,0.00,CLR,,0.00,WeatherDisplay:10.37,2013-01-13 20:27:00,
2013-01-13 15:32:00,80.1,66.3,30.06,SE,135,5.8,5.8,63,0.00,CLR,,0.00,WeatherDisplay:10.37,2013-01-13 20:32:00,
2013-01-13 15:37:00,79.7,66.0,30.06,ESE,112,3.8,4.6,63,0.00,CLR,,0.00,WeatherDisplay:10.37,2013-01-13 20:37:00,
2013-01-13 15:42:00,79.5,65.8,30.06,SSE,158,6.9,6.9,63,0.00,CLR,,0.00,WeatherDisplay:10.37,2013-01-13 20:42:00,
2013-01-13 15:47:00,79.5,65.8,30.06,SE,135,4.6,4.6,63,0.00,CLR,,0.00,WeatherDisplay:10.37,2013-01-13 20:47:00,
2013-01-13 15:52:00,79.5,65.8,30.06,SE,135,5.8,5.8,63,0.00,CLR,,0.00,WeatherDisplay:10.37,2013-01-13 20:52:00,
2013-01-13 15:57:00,79.7,66.0,30.06,ESE,112,2.3,3.7,63,0.00,CLR,,0.00,WeatherDisplay:10.37,2013-01-13 20:57:00,
2013-01-13 16:02:00,79.3,65.6,30.06,SE,135,4.6,4.6,63,0.00,CLR,,0.00,WeatherDisplay:10.37,2013-01-13 21:02:00,
2013-01-13 16:07:00,79.3,65.6,30.07,SE,135,4.9,4.9,63,0.00,CLR,,0.00,WeatherDisplay:10.37,2013-01-13 21:07:00,
2013-01-13 16:12:00,79.2,65.5,30.07,SE,135,5.8,5.8,63,0.00,CLR,,0.00,WeatherDisplay:10.37,2013-01-13 21:12:00,
2013-01-13 16:17:00,79.3,66.1,30.07,SE,135,5.8,5.8,64,0.00,CLR,,0.00,WeatherDisplay:10.37,2013-01-13 21:17:00,
2013-01-13 16:22:00,79.0,65.3,30.07,SE,135,3.5,4.3,63,0.00,CLR,,0.00,WeatherDisplay:10.37,2013-01-13 21:22:00,
2013-01-13 16:27:00,78.8,65.6,30.07,ESE,112,4.6,4.6,64,0.00,CLR,,0.00,WeatherDisplay:10.37,2013-01-13 21:27:00,
2013-01-13 16:32:00,78.6,65.4,30.07,ESE,112,6.9,6.9,64,0.00,CLR,,0.00,WeatherDisplay:10.37,2013-01-13 21:32:00,
2013-01-13 16:37:00,78.6,65.9,30.07,SE,135,6.9,6.9,65,0.00,CLR,,0.00,WeatherDisplay:10.37,2013-01-13 21:37:00,
2013-01-13 16:42:00,78.4,65.2,30.07,ESE,112,4.6,4.6,64,0.00,CLR,,0.00,WeatherDisplay:10.37,2013-01-13 21:42:00,
2013-01-13 16:47:00,78.3,64.6,30.07,ESE,112,4.9,4.9,63,0.00,CLR,,0.00,WeatherDisplay:10.37,2013-01-13 21:47:00,
2013-01-13 16:52:00,78.1,64.9,30.07,SE,135,4.6,4.6,64,0.00,CLR,,0.00,WeatherDisplay:10.37,2013-01-13 21:52:00,
2013-01-13 16:57:00,78.3,65.1,30.07,SE,135,7.4,7.4,64,0.00,CLR,,0.00,WeatherDisplay:10.37,2013-01-13 21:57:00,
2013-01-13 17:02:00,77.9,64.3,30.07,East,90,4.6,4.6,63,0.00,CLR,,0.00,WeatherDisplay:10.37,2013-01-13 22:02:00,
2013-01-13 17:07:00,77.7,64.1,30.08,ESE,112,3.5,3.5,63,0.00,CLR,,0.00,WeatherDisplay:10.37,2013-01-13 22:07:00,
2013-01-13 17:12:00,77.5,64.4,30.08,SE,135,6.9,6.9,64,0.00,CLR,,0.00,WeatherDisplay:10.37,2013-01-13 22:12:00,
2013-01-13 17:17:00,77.5,64.4,30.08,SE,135,8.1,8.1,64,0.00,CLR,,0.00,WeatherDisplay:10.37,2013-01-13 22:17:00,
2013-01-13 17:22:00,77.2,64.5,30.08,SE,135,4.6,4.6,65,0.00,CLR,,0.00,WeatherDisplay:10.37,2013-01-13 22:22:00,
2013-01-13 17:27:00,77.0,64.3,30.08,ESE,112,3.6,3.7,65,0.00,CLR,,0.00,WeatherDisplay:10.37,2013-01-13 22:27:00,
2013-01-13 17:33:00,76.8,64.2,30.08,East,90,4.6,4.6,65,0.00,CLR,,0.00,WeatherDisplay:10.37,2013-01-13 22:33:00,
2013-01-13 17:38:00,76.6,64.0,30.08,SE,135,4.6,4.6,65,0.00,CLR,,0.00,WeatherDisplay:10.37,2013-01-13 22:38:00,
2013-01-13 17:43:00,76.5,64.3,30.08,ESE,112,6.9,6.9,66,0.00,CLR,,0.00,WeatherDisplay:10.37,2013-01-13 22:43:00,
2013-01-13 17:48:00,76.6,64.4,30.07,ESE,112,4.6,4.6,66,0.00,CLR,,0.00,WeatherDisplay:10.37,2013-01-13 22:48:00,
2013-01-13 17:53:00,76.5,64.3,30.07,SE,135,4.7,4.7,66,0.00,CLR,,0.00,WeatherDisplay:10.37,2013-01-13 22:53:00,
2013-01-13 17:58:00,76.3,64.5,30.07,East,90,4.6,4.6,67,0.00,CLR,,0.00,WeatherDisplay:10.37,2013-01-13 22:58:00,
2013-01-13 18:03:00,76.5,64.7,30.07,ESE,112,4.6,4.6,67,0.00,CLR,,0.00,WeatherDisplay:10.37,2013-01-13 23:03:00,
2013-01-13 18:08:00,76.3,64.5,30.08,SE,135,3.6,3.6,67,0.00,CLR,,0.00,WeatherDisplay:10.37,2013-01-13 23:08:00,
2013-01-13 18:13:00,76.3,64.5,30.08,ESE,112,5.8,5.8,67,0.00,CLR,,0.00,WeatherDisplay:10.37,2013-01-13 23:13:00,
2013-01-13 18:18:00,76.5,64.7,30.08,SE,135,4.6,4.6,67,0.00,CLR,,0.00,WeatherDisplay:10.37,2013-01-13 23:18:00,
2013-01-13 18:23:00,76.3,64.5,30.08,SE,135,9.4,9.4,67,0.00,CLR,,0.00,WeatherDisplay:10.37,2013-01-13 23:23:00,
2013-01-13 18:28:00,76.1,64.3,30.08,South,180,2.6,4.0,67,0.00,CLR,,0.00,WeatherDisplay:10.37,2013-01-13 23:28:00,
2013-01-13 18:33:00,76.1,64.3,30.08,SE,135,4.7,4.7,67,0.00,CLR,,0.00,WeatherDisplay:10.37,2013-01-13 23:33:00,
2013-01-13 18:38:00,76.1,64.3,30.08,SE,135,4.6,4.6,67,0.00,CLR,,0.00,WeatherDisplay:10.37,2013-01-13 23:38:00,
2013-01-13 18:43:00,75.9,64.2,30.08,East,90,6.9,6.9,67,0.00,CLR,,0.00,WeatherDisplay:10.37,2013-01-13 23:43:00,
2013-01-13 18:48:00,75.9,64.2,30.08,East,90,2.8,3.9,67,0.00,CLR,,0.00,WeatherDisplay:10.37,2013-01-13 23:48:00,
2013-01-13 18:53:00,76.1,64.3,30.08,SE,135,9.2,9.2,67,0.00,CLR,,0.00,WeatherDisplay:10.37,2013-01-13 23:53:00,
2013-01-13 18:58:00,76.1,64.3,30.08,ENE,68,5.1,5.1,67,0.00,CLR,,0.00,WeatherDisplay:10.37,2013-01-13 23:58:00,
2013-01-13 19:03:00,76.1,64.3,30.08,SE,135,6.9,6.9,67,0.00,CLR,,0.00,WeatherDisplay:10.37,2013-01-14 00:03:00,
2013-01-13 19:08:00,76.3,64.5,30.08,East,90,5.8,5.8,67,0.00,CLR,,0.00,WeatherDisplay:10.37,2013-01-14 00:08:00,
2013-01-13 19:13:00,76.3,64.1,30.08,ESE,112,7.4,7.4,66,0.00,CLR,,0.00,WeatherDisplay:10.37,2013-01-14 00:13:00,
2013-01-13 19:18:00,75.9,63.7,30.08,East,90,3.5,4.4,66,0.00,CLR,,0.00,WeatherDisplay:10.37,2013-01-14 00:18:00,
2013-01-13 19:23:00,76.3,64.5,30.08,SE,135,7.1,7.1,67,0.00,CLR,,0.00,WeatherDisplay:10.37,2013-01-14 00:23:00,
2013-01-13 19:28:00,76.1,64.3,30.08,NE,45,5.8,5.8,67,0.00,CLR,,0.00,WeatherDisplay:10.37,2013-01-14 00:28:00,
2013-01-13 19:33:00,75.9,64.2,30.08,East,90,5.8,5.8,67,0.00,CLR,,0.00,WeatherDisplay:10.37,2013-01-14 00:33:00,
2013-01-13 19:38:00,76.1,64.3,30.08,SE,135,4.6,4.6,67,0.00,CLR,,0.00,WeatherDisplay:10.37,2013-01-14 00:38:00,
2013-01-13 19:43:00,76.3,64.5,30.08,ESE,112,7.2,7.2,67,0.00,CLR,,0.00,WeatherDisplay:10.37,2013-01-14 00:43:00,
2013-01-13 19:48:00,76.1,64.3,30.08,ESE,112,2.9,4.5,67,0.00,CLR,,0.00,WeatherDisplay:10.37,2013-01-14 00:48:00,
2013-01-13 19:53:00,76.1,63.9,30.08,ESE,112,6.9,6.9,66,0.00,CLR,,0.00,WeatherDisplay:10.37,2013-01-14 00:53:00,
2013-01-13 19:58:00,75.9,63.7,30.08,SE,135,8.5,8.5,66,0.00,CLR,,0.00,WeatherDisplay:10.37,2013-01-14 00:58:00,
2013-01-13 20:03:00,75.9,63.3,30.08,SSE,158,5.8,5.8,65,0.00,CLR,,0.00,WeatherDisplay:10.37,2013-01-14 01:03:00,
2013-01-13 20:08:00,75.7,63.6,30.08,ENE,68,6.9,6.9,66,0.00,CLR,,0.00,WeatherDisplay:10.37,2013-01-14 01:08:00,
2013-01-13 20:13:00,75.6,63.0,30.08,ESE,112,5.8,5.8,65,0.00,CLR,,0.00,WeatherDisplay:10.37,2013-01-14 01:13:00,
2013-01-13 20:18:00,75.7,63.1,30.08,NE,45,5.8,5.8,65,0.00,CLR,,0.00,WeatherDisplay:10.37,2013-01-14 01:18:00,
2013-01-13 20:23:00,75.2,62.6,30.08,ESE,112,5.8,5.8,65,0.00,CLR,,0.00,WeatherDisplay:10.37,2013-01-14 01:23:00,
2013-01-13 20:28:00,75.2,63.1,30.08,SE,135,3.5,4.9,66,0.00,CLR,,0.00,WeatherDisplay:10.37,2013-01-14 01:28:00,
2013-01-13 20:33:00,75.2,62.6,30.08,ESE,112,5.8,5.8,65,0.00,CLR,,0.00,WeatherDisplay:10.37,2013-01-14 01:33:00,
2013-01-13 20:38:00,75.2,63.1,30.08,ENE,68,4.8,4.8,66,0.00,CLR,,0.00,WeatherDisplay:10.37,2013-01-14 01:38:00,
2013-01-13 20:43:00,75.0,62.9,30.08,SE,135,4.6,4.6,66,0.00,CLR,,0.00,WeatherDisplay:10.37,2013-01-14 01:43:00,
2013-01-13 20:48:00,75.0,62.9,30.06,ESE,112,5.2,5.2,66,0.00,CLR,,0.00,WeatherDisplay:10.37,2013-01-14 01:48:00,
2013-01-13 20:53:00,75.0,62.9,30.06,SE,135,4.6,4.6,66,0.00,CLR,,0.00,WeatherDisplay:10.37,2013-01-14 01:53:00,
2013-01-13 20:58:00,75.0,62.5,30.06,ESE,112,8.3,8.3,65,0.00,CLR,,0.00,WeatherDisplay:10.37,2013-01-14 01:58:00,
2013-01-13 21:03:00,75.0,62.5,30.06,ENE,68,4.6,4.6,65,0.00,CLR,,0.00,WeatherDisplay:10.37,2013-01-14 02:03:00,
2013-01-13 21:08:00,74.8,62.7,30.06,East,90,7.2,7.2,66,0.00,CLR,,0.00,WeatherDisplay:10.37,2013-01-14 02:08:00,
2013-01-13 21:13:00,75.0,62.5,30.06,ESE,112,8.1,8.1,65,0.00,CLR,,0.00,WeatherDisplay:10.37,2013-01-14 02:13:00,
2013-01-13 21:18:00,75.0,62.0,30.06,ENE,68,6.9,6.9,64,0.00,CLR,,0.00,WeatherDisplay:10.37,2013-01-14 02:18:00,
2013-01-13 21:23:00,75.0,62.0,30.06,ESE,112,5.8,5.8,64,0.00,CLR,,0.00,WeatherDisplay:10.37,2013-01-14 02:23:00,
2013-01-13 21:28:00,74.8,61.8,30.06,SE,135,6.4,6.4,64,0.00,CLR,,0.00,WeatherDisplay:10.37,2013-01-14 02:28:00,
2013-01-13 21:33:00,74.7,62.1,30.06,ESE,112,6.9,6.9,65,0.00,CLR,,0.00,WeatherDisplay:10.37,2013-01-14 02:33:00,
2013-01-13 21:38:00,74.7,61.7,30.06,ENE,68,6.9,6.9,64,0.00,CLR,,0.00,WeatherDisplay:10.37,2013-01-14 02:38:00,
2013-01-13 21:43:00,74.7,62.1,30.06,ESE,112,8.1,8.1,65,0.00,CLR,,0.00,WeatherDisplay:10.37,2013-01-14 02:43:00,
2013-01-13 21:48:00,74.7,62.1,30.05,SE,135,9.2,9.2,65,0.00,CLR,,0.00,WeatherDisplay:10.37,2013-01-14 02:48:00,
2013-01-13 21:53:00,74.7,62.1,30.05,SE,135,8.1,8.1,65,0.00,CLR,,0.00,WeatherDisplay:10.37,2013-01-14 02:53:00,
2013-01-13 21:58:00,74.7,62.1,30.05,SE,135,11.8,11.8,65,0.00,CLR,,0.00,WeatherDisplay:10.37,2013-01-14 02:58:00,
2013-01-13 22:03:00,74.5,62.4,30.05,East,90,9.2,9.2,66,0.00,CLR,,0.00,WeatherDisplay:10.37,2013-01-14 03:03:00,
2013-01-13 22:08:00,74.7,62.5,30.06,ESE,112,6.9,6.9,66,0.00,CLR,,0.00,WeatherDisplay:10.37,2013-01-14 03:08:00,
2013-01-13 22:13:00,74.7,62.5,30.06,SSE,158,6.1,6.1,66,0.00,CLR,,0.00,WeatherDisplay:10.37,2013-01-14 03:13:00,
2013-01-13 22:18:00,74.5,62.4,30.06,ENE,68,6.9,6.9,66,0.00,CLR,,0.00,WeatherDisplay:10.37,2013-01-14 03:18:00,
2013-01-13 22:23:00,74.7,62.5,30.06,ESE,112,9.2,9.2,66,0.00,CLR,,0.00,WeatherDisplay:10.37,2013-01-14 03:23:00,
2013-01-13 22:28:00,74.5,62.4,30.06,ENE,68,5.8,5.8,66,0.00,CLR,,0.00,WeatherDisplay:10.37,2013-01-14 03:28:00,
2013-01-13 22:33:00,74.5,62.4,30.06,SE,135,4.6,4.9,66,0.00,CLR,,0.00,WeatherDisplay:10.37,2013-01-14 03:33:00,
2013-01-13 22:38:00,74.3,62.2,30.06,SSE,158,8.1,8.1,66,0.00,CLR,,0.00,WeatherDisplay:10.37,2013-01-14 03:38:00,
2013-01-13 22:43:00,74.3,62.6,30.06,ESE,112,8.1,8.1,67,0.00,CLR,,0.00,WeatherDisplay:10.37,2013-01-14 03:43:00,
2013-01-13 22:48:00,74.3,62.6,30.07,ESE,112,4.6,4.6,67,0.00,CLR,,0.00,WeatherDisplay:10.37,2013-01-14 03:48:00,
2013-01-13 22:53:00,74.1,62.0,30.07,SE,135,5.8,5.8,66,0.00,CLR,,0.00,WeatherDisplay:10.37,2013-01-14 03:53:00,
2013-01-13 22:58:00,74.1,62.0,30.07,SE,135,8.1,8.1,66,0.00,CLR,,0.00,WeatherDisplay:10.37,2013-01-14 03:58:00,
2013-01-13 23:03:00,74.1,62.0,30.07,SE,135,6.0,6.0,66,0.00,CLR,,0.00,WeatherDisplay:10.37,2013-01-14 04:03:00,
2013-01-13 23:08:00,74.3,62.2,30.06,ESE,112,4.6,4.6,66,0.00,CLR,,0.00,WeatherDisplay:10.37,2013-01-14 04:08:00,
2013-01-13 23:13:00,74.3,62.6,30.06,ESE,112,5.8,5.8,67,0.00,CLR,,0.00,WeatherDisplay:10.37,2013-01-14 04:13:00,
2013-01-13 23:18:00,74.7,63.0,30.06,SSE,158,7.6,7.6,67,0.00,CLR,,0.00,WeatherDisplay:10.37,2013-01-14 04:18:00,
2013-01-13 23:23:00,74.7,62.5,30.06,East,90,10.4,10.4,66,0.00,CLR,,0.00,WeatherDisplay:10.37,2013-01-14 04:23:00,
2013-01-13 23:28:00,74.3,62.2,30.05,SE,135,5.5,5.5,66,0.00,CLR,,0.00,WeatherDisplay:10.37,2013-01-14 04:28:00,
2013-01-13 23:33:00,74.5,62.4,30.05,SE,135,6.9,6.9,66,0.00,CLR,,0.00,WeatherDisplay:10.37,2013-01-14 04:33:00,
2013-01-13 23:38:00,74.7,63.0,30.05,ESE,112,3.5,4.3,67,0.00,CLR,,0.00,WeatherDisplay:10.37,2013-01-14 04:38:00,
2013-01-13 23:43:00,74.7,63.0,30.05,ESE,112,6.9,6.9,67,0.00,CLR,,0.00,WeatherDisplay:10.37,2013-01-14 04:43:00,
2013-01-13 23:48:00,74.5,63.2,30.06,ESE,112,4.6,4.6,68,0.00,CLR,,0.00,WeatherDisplay:10.37,2013-01-14 04:48:00,
2013-01-13 23:53:00,74.7,63.4,30.06,ESE,112,5.8,5.8,68,0.00,CLR,,0.00,WeatherDisplay:10.37,2013-01-14 04:53:00,
2013-01-13 23:58:00,74.5,63.6,30.06,SE,135,6.3,6.3,69,0.00,CLR,,0.00,WeatherDisplay:10.37,2013-01-14 04:58:00,